Date String (YYYY-MM-DD hh:mm:ss) UTC,Instrument flags,absolute air pressure of the measurement (hPa),sample flow rate (lpm),inlet stack bypass flow (lpm),air temperature of the measurement (°C),ambient temperature measured by the external sensor (°C),aerosol sample conditioner tube jacket temperature (°C),OPC LED temperature (°C),internal box temperature (°C),relative humidity of the measurement (%),span deviation,mass concentration of particles derived from Lorenz-Mie calculation of OPC scattering (μg/m³),mass concentration of particles derived from Lorenz-Mie calculation of OPC scattering (μg/m³),mass concentration of particles derived from Lorenz-Mie calculation of OPC scattering (μg/m³)
DateTimeUTC,F1_M11,P_M11,Q1_M11,Q2_M11,T1_M11,T2_M11,T3_M11,T4_M11,T5_M11,U1_M11,ZSPAN_M11,X0_M11,X2_M11,X1_M11
2023-10-09 00:00:00,SystemResetWarning,0831.0,5.00,000.00,028.1,025.0,000.0,036.5,029.6,13.1,0000.0,0009.99,0002.53,0001.73
2023-10-09 00:01:00,SystemResetWarning,0830.9,5.00,000.00,028.1,025.4,000.0,036.5,029.7,13.0,0000.0,0009.50,0002.48,0001.74
2023-10-09 00:02:00,SystemResetWarning,0830.9,4.99,000.00,028.1,025.8,000.0,036.5,029.8,13.0,0000.0,0009.02,0002.46,0001.74
2023-10-09 00:03:00,SystemResetWarning,0830.9,5.00,000.00,028.1,026.2,000.0,036.6,029.9,12.9,0000.0,0008.74,0002.44,0001.74
2023-10-09 00:04:00,SystemResetWarning,0831.0,5.00,000.00,028.2,026.5,000.0,036.6,030.0,13.0,0000.0,0007.96,0002.42,0001.74
2023-10-09 00:05:00,SystemResetWarning,0831.0,5.00,000.00,028.2,026.8,000.0,036.6,030.0,12.9,0000.0,0006.74,0002.38,0001.75
2023-10-09 00:06:00,SystemResetWarning,0830.9,5.00,000.00,028.3,027.0,000.0,036.6,030.1,12.7,0000.0,0005.85,0002.38,0001.76
2023-10-09 00:07:00,SystemResetWarning,0830.9,4.99,000.00,028.3,027.2,000.0,036.6,030.2,12.6,0000.0,0007.09,0002.55,0001.78
2023-10-09 00:08:00,SystemResetWarning,0831.0,4.99,000.00,028.4,027.4,000.0,036.7,030.2,12.4,0000.0,0007.13,0002.58,0001.77
2023-10-09 00:09:00,SystemResetWarning,0831.0,4.99,000.00,028.4,027.2,000.0,036.7,030.3,12.2,0000.0,0005.65,0002.57,0001.76
2023-10-09 00:10:00,SystemResetWarning,0830.9,4.99,000.00,028.4,025.4,000.0,036.6,030.1,12.2,0000.0,0005.49,0002.55,0001.76
2023-10-09 00:11:00,SystemResetWarning,0830.9,5.01,000.00,028.3,024.1,000.0,036.6,029.8,12.3,0000.0,0005.53,0002.55,0001.77
2023-10-09 00:12:00,SystemResetWarning,0830.9,5.01,000.00,028.2,024.1,000.0,036.5,029.7,12.4,0000.0,0005.50,0002.57,0001.76
2023-10-09 00:13:00,SystemResetWarning,0830.9,5.00,000.00,028.1,024.4,000.0,036.5,029.6,12.5,0000.0,0005.48,0002.51,0001.76
2023-10-09 00:14:00,SystemResetWarning,0830.9,5.00,000.00,028.1,024.9,000.0,036.5,029.6,12.6,0000.0,0005.46,0002.47,0001.76
2023-10-09 00:15:00,SystemResetWarning,0830.9,5.00,000.00,028.1,025.4,000.0,036.5,029.7,12.7,0000.0,0005.49,0002.44,0001.76
2023-10-09 00:16:00,SystemResetWarning,0830.9,4.99,000.00,028.1,025.8,000.0,036.5,029.7,12.6,0000.0,0005.79,0002.48,0001.76
2023-10-09 00:17:00,SystemResetWarning,0830.9,5.00,000.00,028.1,026.2,000.0,036.5,029.8,12.3,0000.0,0006.88,0002.45,0001.75
2023-10-09 00:18:00,SystemResetWarning,0830.9,5.01,000.00,028.1,026.5,000.0,036.5,029.9,12.4,0000.0,0005.61,0002.29,0001.74
2023-10-09 00:19:00,SystemResetWarning,0830.9,5.00,000.00,028.2,026.8,000.0,036.6,030.0,12.3,0000.0,0005.49,0002.24,0001.75
2023-10-09 00:20:00,SystemResetWarning,0830.9,5.00,000.00,028.2,027.0,000.0,036.6,030.1,12.2,0000.0,0006.50,0002.25,0001.76
2023-10-09 00:21:00,SystemResetWarning,0830.9,5.00,000.00,028.3,027.2,000.0,036.6,030.1,12.2,0000.0,0006.76,0002.25,0001.75
2023-10-09 00:22:00,SystemResetWarning,0830.9,5.00,000.00,028.3,027.3,000.0,036.6,030.2,12.1,0000.0,0007.64,0002.29,0001.76
2023-10-09 00:23:00,SystemResetWarning,0830.9,5.00,000.00,028.4,027.4,000.0,036.7,030.3,12.1,0000.0,0008.68,0002.31,0001.78
2023-10-09 00:24:00,SystemResetWarning,0830.9,4.98,000.00,028.4,026.1,000.0,036.6,030.2,12.1,0000.0,0008.99,0002.34,0001.78
2023-10-09 00:25:00,SystemResetWarning,0830.9,5.02,000.00,028.3,025.0,000.0,036.6,030.0,12.1,0000.0,0009.41,0002.38,0001.78
2023-10-09 00:26:00,SystemResetWarning,0830.9,5.00,000.00,028.3,024.9,000.0,036.6,029.9,12.0,0000.0,0009.29,0002.39,0001.77
2023-10-09 00:27:00,SystemResetWarning,0830.9,5.00,000.00,028.2,025.2,000.0,036.6,029.8,12.1,0000.0,0009.77,0002.42,0001.78
2023-10-09 00:28:00,SystemResetWarning,0830.9,5.01,000.00,028.2,025.6,000.0,036.6,029.8,12.1,0000.0,0009.58,0002.44,0001.78
2023-10-09 00:29:00,SystemResetWarning,0830.9,4.99,000.00,028.2,025.9,000.0,036.6,029.9,12.2,0000.0,0009.48,0002.50,0001.79
2023-10-09 00:30:00,SystemResetWarning,0830.9,4.99,000.00,028.2,026.3,000.0,036.6,030.0,12.1,0000.0,0010.16,0002.55,0001.80
2023-10-09 00:31:00,SystemResetWarning,0830.9,5.00,000.00,028.3,026.6,000.0,036.6,030.0,12.1,0000.0,0011.03,0002.53,0001.79
2023-10-09 00:32:00,SystemResetWarning,0830.9,5.00,000.00,028.3,026.8,000.0,036.6,030.1,12.1,0000.0,0010.64,0002.56,0001.80
2023-10-09 00:33:00,SystemResetWarning,0830.9,5.01,000.00,028.4,027.0,000.0,036.7,030.2,12.0,0000.0,0010.17,0002.55,0001.80
2023-10-09 00:34:00,SystemResetWarning,0830.9,5.01,000.00,028.4,027.2,000.0,036.7,030.2,12.0,0000.0,0009.91,0002.53,0001.78
2023-10-09 00:35:00,SystemResetWarning,0830.9,5.00,000.00,028.4,027.1,000.0,036.7,030.3,12.0,0000.0,0009.57,0002.53,0001.77
2023-10-09 00:36:00,SystemResetWarning,0830.9,4.97,000.00,028.4,025.4,000.0,036.7,030.1,12.0,0000.0,0009.32,0002.50,0001.76
2023-10-09 00:37:00,SystemResetWarning,0830.8,5.02,000.00,028.3,023.8,000.0,036.6,029.8,12.1,0000.0,0009.85,0002.56,0001.77
2023-10-09 00:38:00,SystemResetWarning,0830.8,5.01,000.00,028.2,023.7,000.0,036.6,029.6,12.2,0000.0,0009.55,0002.60,0001.77
2023-10-09 00:39:00,SystemResetWarning,0830.8,5.00,000.00,028.1,024.1,000.0,036.5,029.5,12.3,0000.0,0009.57,0002.58,0001.77
2023-10-09 00:40:00,SystemResetWarning,0830.8,5.01,000.00,028.0,024.6,000.0,036.5,029.5,12.4,0000.0,0009.56,0002.56,0001.76
2023-10-09 00:41:00,SystemResetWarning,0830.8,5.00,000.00,028.0,025.1,000.0,036.6,029.6,12.4,0000.0,0008.85,0002.51,0001.75
2023-10-09 00:42:00,SystemResetWarning,0830.8,5.00,000.00,028.0,025.5,000.0,036.6,029.7,12.5,0000.0,0007.62,0002.50,0001.76
2023-10-09 00:43:00,SystemResetWarning,0830.9,5.00,000.00,028.0,025.9,000.0,036.5,029.8,12.6,0000.0,0007.83,0002.54,0001.75
2023-10-09 00:44:00,SystemResetWarning,0830.9,5.00,000.00,028.1,026.2,000.0,036.5,029.8,12.6,0000.0,0008.32,0002.58,0001.75
2023-10-09 00:45:00,SystemResetWarning,0830.9,5.00,000.00,028.1,026.5,000.0,036.6,029.9,12.6,0000.0,0008.15,0002.64,0001.75
2023-10-09 00:46:00,SystemResetWarning,0830.9,5.00,000.00,028.2,026.7,000.0,036.6,030.0,12.5,0000.0,0008.51,0002.65,0001.76
2023-10-09 00:47:00,SystemResetWarning,0830.9,5.00,000.00,028.2,026.9,000.0,036.6,030.0,12.5,0000.0,0008.48,0002.67,0001.77
2023-10-09 00:48:00,SystemResetWarning,0830.9,4.99,000.00,028.3,027.1,000.0,036.6,030.1,12.4,0000.0,0007.98,0002.64,0001.78
2023-10-09 00:49:00,SystemResetWarning,0830.9,4.99,000.00,028.3,027.2,000.0,036.6,030.1,12.3,0000.0,0007.82,0002.57,0001.78
2023-10-09 00:50:00,SystemResetWarning,0830.9,5.00,000.00,028.3,027.4,000.0,036.7,030.2,12.3,0000.0,0007.55,0002.58,0001.78
2023-10-09 00:51:00,SystemResetWarning,0830.9,5.00,000.00,028.4,027.5,000.0,036.7,030.2,12.2,0000.0,0008.08,0002.56,0001.79
2023-10-09 00:52:00,SystemResetWarning,0830.9,5.00,000.00,028.4,026.6,000.0,036.7,030.2,12.3,0000.0,0008.19,0002.60,0001.78
2023-10-09 00:53:00,SystemResetWarning,0830.9,5.00,000.00,028.4,025.0,000.0,036.6,030.0,12.3,0000.0,0008.51,0002.63,0001.78
2023-10-09 00:54:00,SystemResetWarning,0830.9,5.01,000.00,028.3,024.7,000.0,036.6,029.9,12.2,0000.0,0008.57,0002.59,0001.78
2023-10-09 00:55:00,SystemResetWarning,0830.9,5.01,000.00,028.2,024.9,000.0,036.6,029.7,12.4,0000.0,0008.52,0002.56,0001.78
2023-10-09 00:56:00,SystemResetWarning,0830.9,5.01,000.00,028.2,025.2,000.0,036.6,029.7,12.4,0000.0,0007.91,0002.51,0001.78
2023-10-09 00:57:00,SystemResetWarning,0830.9,5.00,000.00,028.2,025.6,000.0,036.6,029.8,12.4,0000.0,0007.65,0002.45,0001.79
2023-10-09 00:58:00,SystemResetWarning,0830.9,5.00,000.00,028.2,026.0,000.0,036.6,029.8,12.4,0000.0,0007.61,0002.42,0001.78
2023-10-09 00:59:00,SystemResetWarning,0830.9,5.00,000.00,028.2,026.3,000.0,036.6,029.9,12.4,0000.0,0007.53,0002.37,0001.77
